Terug naar catalogus

FENGYUN 1C DEB

ActiefPO
NORAD 35144·DEBRIS·🇨🇳 China

Gelanceerd May 10, 1999 vanaf Taiyuan Satellite Launch Center

Loading…

Volgende Passages (komende 24 uur)

TLE

VersSource: Space-Track

Epoch: Sep 13, 2026, 19:57 UTC

1 35144U 99025DLY 26256.83159006  .00007500  00000-0  13844-2 0  9999
2 35144  98.7137  32.1625 0024225 232.0292 127.8722 14.65588138692351

Volg FENGYUN 1C DEB in realtime met AllMySat

Download on the App Store